Location: Luxembourg
(49.6117°N, 6.1300°E)
Time: 04:11:11
(UTC+01:00)

BlueWalker 3 - Pass Details

Date: 18 October 2024
Orbit: 470 x 482 km, 53.2° (Epoch: 04 November)

Event Time Altitude Azimuth Distance (km) Brightness Sun altitude
Exits shadow 05:50:41 55° 4° (N) 574 2.2 -21.9°
Maximum altitude 05:50:48 55° 12° (NNE) 572 2.2 -21.9°
Drops below altitude 10° 05:54:25 10° 92° (E) 1,633 5.6 -21.3°
Sets 05:56:36 0° 97° (E) 2,510 6.8 -21.0°
